Showing default

RAPTOR3, 58958

Orbit data source: Space-Track

RAPTOR3, 58958 is a payload satellite owned by SDA (US) in LEO that was launched on Wed, 14 Feb 2024 UTC via an FALCON 9 launch vehicle from the Air Force Eastern Test Range (AFETR). Payload-class satellites include a variety of spacecraft equipped with specific instruments for various scientific and technological missions. These include communications satellites like Starlink; space stations such as the ISS; scientific satellites like the Hubble; Earth observation satellites from companies like Planet Labs, Umbra, and HawkEye 360; GPS; miniature CubeSats for education and research; and military/defense satellites.

Loading next visibility...
Identifier
58958, 2024-028D
Orbit
LEO
Country
Flag of USUS
Related business
Manufacturer
L3Harris SIS
Mission
Operational Defense Early Warn
Bus & Motor
TPL0-L3H, Unknown motor
Mass
~1,000 kg wet, ~1,000 kg dry
Launch date (UTC)
2024-02-14 (2 years ago)
Launch vehicle
FALCON 9
Launch site
Air Force Eastern Test Range (AFETR)
Object type
Payload
Rocket body
Debris
Shape & HBR
Box + 1 Pan, 1.0 m
Radar Cross Section
0.945 m², Large (>1 m²)

Expand to show TLE details & history
Last TLE update: 22 hours ago

TLE from 22 hours ago
0 RAPTOR3
1 58958U 24028D   25291.13599678 -.00000025  00000-0  58767-4 0  9993
2 58958  39.9911  75.4373 0012361 298.1930  61.7568 13.70466327 83859
Epoch: 2025-10-18T03:15Z
TLE epoch observation values (Epoch: 2025-10-18T03:15:50.121Z)
Latitude
-0.00002°
Longitude
-0.39291°
Altitude
993.073 km
Speed
7.359 km/s
True Right ascension
05h 01m 44s
True Declination
0° 00' 00"
Sunlit
Object was in full shadow at epoch
Visualization orbit readout
Latitude
Unknown
Longitude
Unknown
Altitude
Unknown
Speed
Unknown
Apparent Right ascension
Unknown
Apparent Declination
Unknown
Sunlit
N/A
Visualization observer readout
Local Sidereal Time
19:52:55
Azimuth
Unknown
Elevation
Unknown
Doppler factor
Unknown
Orbital elements
Apogee altitude
1,009.294 km
Perigee altitude
991.054 km
Semi-major axis
7,378.311 km
Eccentricity
0.00124
Inclination
39.9911°
RAAN
75.4373°
Arg. of periapsis
298.193°
True anomaly
61.88167°
Mean anomaly
61.7568°
Eccentric anomaly
61.81923°
Mean motion
3.42458 °/min
Orbital period
105.12 mins
BSTAR
0.000058767
Loading maneuver chart data...
Computing Atmospheric mass density...
Loading historical data...
Loading historical data...
Loading historical data...
Loading historical data...
Loading historical data...
Loading historical data...
Loading historical data...
Other satellites on launch #28 in the year 2024 (2024-02-14 UTC)

Documentation

Showing up to 5 results
|